ANA215 RJTT-ROAH

Flight info

Callsign ANA215
Flight time 2h 18m
Altitude 38000
Route LAXAS Y56 TOHME Y54 KOHWA Y12 AYANO Y128 LAXEL Y52 TONAR Y525 IHEYA
Aircraft B77W/H-SDE1E2E3FGHIJ2J3J4J5M1RWXY/LB1D1

Departure

Time 2026-04-20 18:58
Airport Tokyo Haneda International Airport (RJTT)

Arrival

Time 2026-04-20 21:16
Airport Naha International Airport (ROAH)
Time Latitude Longitude Altitude Speed Heading
2026-04-20 18:30 35.54759 139.78327 28 ft 0 kts 20°
2026-04-20 18:44 35.54752 139.78324 27 ft 2 kts 20°
2026-04-20 18:44 35.54736 139.78317 27 ft 2 kts 20°
2026-04-20 18:45 35.54721 139.78310 26 ft 2 kts 20°
2026-04-20 18:45 35.54705 139.78303 27 ft 2 kts 18°
2026-04-20 18:45 35.54689 139.78297 27 ft 2 kts 14°
2026-04-20 18:45 35.54673 139.78294 27 ft 2 kts 343°
2026-04-20 18:46 35.54668 139.78297 26 ft 0 kts 332°
2026-04-20 18:46 35.54668 139.78296 26 ft 0 kts 332°
2026-04-20 18:50 35.54703 139.78267 25 ft 8 kts 321°
2026-04-20 18:50 35.54741 139.78216 28 ft 8 kts 307°
2026-04-20 18:50 35.54785 139.78159 28 ft 11 kts 321°
2026-04-20 18:50 35.54864 139.78095 27 ft 16 kts 329°
2026-04-20 18:51 35.54972 139.78018 27 ft 20 kts 330°
2026-04-20 18:51 35.55082 139.77940 28 ft 18 kts 330°
2026-04-20 18:51 35.55190 139.77863 28 ft 18 kts 330°
2026-04-20 18:51 35.55297 139.77786 27 ft 18 kts 330°
2026-04-20 18:52 35.55406 139.77710 26 ft 18 kts 330°
2026-04-20 18:52 35.55514 139.77634 27 ft 18 kts 330°
2026-04-20 18:52 35.55622 139.77558 27 ft 18 kts 330°
2026-04-20 18:52 35.55730 139.77481 27 ft 18 kts 330°
2026-04-20 18:53 35.55831 139.77410 27 ft 15 kts 329°
2026-04-20 18:53 35.55914 139.77352 28 ft 13 kts 337°
2026-04-20 18:53 35.56001 139.77351 29 ft 13 kts 21°
2026-04-20 18:53 35.56081 139.77405 30 ft 13 kts 30°
2026-04-20 18:54 35.56160 139.77472 29 ft 14 kts 38°
2026-04-20 18:54 35.56240 139.77547 33 ft 14 kts 36°
2026-04-20 18:54 35.56322 139.77616 34 ft 14 kts 35°
2026-04-20 18:54 35.56405 139.77687 34 ft 14 kts 35°
2026-04-20 18:55 35.56486 139.77758 37 ft 14 kts 35°
2026-04-20 18:55 35.56547 139.77810 39 ft 6 kts 34°
2026-04-20 18:55 35.56582 139.77838 39 ft 6 kts 30°
2026-04-20 18:55 35.56608 139.77854 40 ft 0 kts 20°
2026-04-20 18:56 35.56664 139.77826 43 ft 20 kts 315°
2026-04-20 18:56 35.56714 139.77730 47 ft 9 kts 283°
2026-04-20 18:56 35.56687 139.77664 47 ft 9 kts 220°
2026-04-20 18:57 35.56662 139.77636 47 ft 1 kts 218°
2026-04-20 18:57 35.56654 139.77629 47 ft 2 kts 216°
2026-04-20 18:57 35.56636 139.77614 46 ft 4 kts 214°
2026-04-20 18:57 35.56505 139.77504 44 ft 58 kts 214°
2026-04-20 18:58 35.55940 139.77020 35 ft 137 kts 214°
2026-04-20 18:58 35.54988 139.76202 112 ft 187 kts 214°
2026-04-20 18:58 35.53968 139.75224 909 ft 185 kts 218°
2026-04-20 18:58 35.52971 139.74315 1924 ft 172 kts 202°
2026-04-20 18:59 35.51721 139.74296 2355 ft 192 kts 169°
2026-04-20 18:59 35.50477 139.74747 3254 ft 184 kts 169°
2026-04-20 18:59 35.49192 139.75106 3656 ft 199 kts 176°
2026-04-20 18:59 35.47731 139.75421 3937 ft 228 kts 174°
2026-04-20 19:00 35.46099 139.75753 4556 ft 243 kts 176°
2026-04-20 19:00 35.44403 139.76045 5297 ft 249 kts 177°
2026-04-20 19:00 35.42672 139.76172 6067 ft 255 kts 184°
2026-04-20 19:00 35.40894 139.76180 6941 ft 258 kts 185°
2026-04-20 19:01 35.39086 139.76176 7808 ft 262 kts 186°
2026-04-20 19:01 35.37245 139.76173 8641 ft 267 kts 186°
2026-04-20 19:01 35.35376 139.76191 9488 ft 271 kts 183°
2026-04-20 19:01 35.33465 139.76630 10205 ft 287 kts 172°
2026-04-20 19:02 35.31479 139.77368 10655 ft 311 kts 169°
2026-04-20 19:02 35.29311 139.78202 10854 ft 341 kts 169°
2026-04-20 19:02 35.26945 139.79074 11138 ft 367 kts 169°
2026-04-20 19:02 35.24455 139.79951 11794 ft 375 kts 172°
2026-04-20 19:03 35.21869 139.80141 12451 ft 374 kts 193°
2026-04-20 19:03 35.19425 139.79134 13399 ft 371 kts 211°
2026-04-20 19:03 35.17338 139.77303 14296 ft 368 kts 227°
2026-04-20 19:03 35.15584 139.75000 15103 ft 373 kts 231°
2026-04-20 19:04 35.13861 139.72603 16010 ft 377 kts 232°
2026-04-20 19:04 35.12102 139.70198 16965 ft 380 kts 232°
2026-04-20 19:04 35.10578 139.67575 17702 ft 381 kts 245°
2026-04-20 19:04 35.09718 139.64560 18483 ft 383 kts 259°
2026-04-20 19:05 35.09225 139.61366 19318 ft 384 kts 261°
2026-04-20 19:05 35.08744 139.58146 20183 ft 386 kts 261°
2026-04-20 19:05 35.08237 139.54911 21033 ft 389 kts 261°
2026-04-20 19:05 35.07707 139.51664 21824 ft 392 kts 261°
2026-04-20 19:06 35.07164 139.48383 22605 ft 396 kts 261°
2026-04-20 19:06 35.06611 139.45076 23368 ft 399 kts 261°
2026-04-20 19:06 35.06242 139.42876 23820 ft 401 kts 261°
2026-04-20 19:06 35.05491 139.38406 24702 ft 403 kts 261°
2026-04-20 19:07 35.04925 139.35041 25337 ft 406 kts 261°
2026-04-20 19:07 35.04356 139.31653 25941 ft 409 kts 261°
2026-04-20 19:07 35.03782 139.28238 26552 ft 412 kts 261°
2026-04-20 19:07 35.03398 139.25963 26949 ft 414 kts 261°
2026-04-20 19:08 35.02817 139.22515 27515 ft 417 kts 261°
2026-04-20 19:08 35.01658 139.15535 28555 ft 423 kts 261°
2026-04-20 19:08 35.01073 139.12002 29026 ft 426 kts 261°
2026-04-20 19:09 35.00480 139.08442 29467 ft 430 kts 261°
2026-04-20 19:09 34.99883 139.04861 29892 ft 432 kts 261°
2026-04-20 19:09 34.99281 139.01263 30363 ft 432 kts 261°
2026-04-20 19:09 34.98782 138.97679 31019 ft 425 kts 265°
2026-04-20 19:10 34.98536 138.94118 31699 ft 419 kts 269°
2026-04-20 19:10 34.98371 138.90591 32303 ft 416 kts 269°
2026-04-20 19:10 34.98197 138.87076 32819 ft 414 kts 269°
2026-04-20 19:10 34.98018 138.83585 33314 ft 412 kts 269°
2026-04-20 19:11 34.97836 138.80106 33822 ft 410 kts 269°
2026-04-20 19:11 34.97651 138.76649 34306 ft 407 kts 269°
2026-04-20 19:11 34.97466 138.73223 34740 ft 404 kts 269°
2026-04-20 19:11 34.97284 138.69854 35124 ft 403 kts 269°
2026-04-20 19:12 34.97100 138.66459 35494 ft 401 kts 269°
2026-04-20 19:12 34.96916 138.63073 35873 ft 399 kts 269°
2026-04-20 19:12 34.96731 138.59702 36242 ft 397 kts 269°
2026-04-20 19:12 34.96546 138.56346 36596 ft 396 kts 269°
2026-04-20 19:13 34.96362 138.53013 36950 ft 394 kts 269°
2026-04-20 19:13 34.96177 138.49689 37270 ft 392 kts 269°
2026-04-20 19:13 34.95992 138.46382 37582 ft 391 kts 269°
2026-04-20 19:13 34.95806 138.43077 37825 ft 391 kts 269°
2026-04-20 19:14 34.95620 138.39755 37872 ft 394 kts 269°
2026-04-20 19:14 34.95242 138.33111 37913 ft 390 kts 269°
2026-04-20 19:15 34.94864 138.26540 37926 ft 387 kts 269°
2026-04-20 19:15 34.94487 138.20017 37920 ft 384 kts 269°
2026-04-20 19:16 34.94108 138.13548 37922 ft 382 kts 269°
2026-04-20 19:16 34.93733 138.07090 37921 ft 383 kts 269°
2026-04-20 19:17 34.93351 138.00608 37924 ft 384 kts 269°
2026-04-20 19:17 34.92965 137.94110 37921 ft 386 kts 269°
2026-04-20 19:18 34.92576 137.87627 37917 ft 387 kts 269°
2026-04-20 19:18 34.92181 137.81090 37926 ft 387 kts 268°
2026-04-20 19:19 34.91804 137.74555 37920 ft 386 kts 269°
2026-04-20 19:19 34.91061 137.68068 37910 ft 389 kts 262°
2026-04-20 19:20 34.89649 137.61696 37920 ft 392 kts 256°
2026-04-20 19:20 34.87752 137.55464 37916 ft 392 kts 255°
2026-04-20 19:21 34.85854 137.49240 37903 ft 392 kts 256°
2026-04-20 19:21 34.84017 137.43004 37900 ft 390 kts 256°
2026-04-20 19:22 34.82252 137.36759 37903 ft 390 kts 257°
2026-04-20 19:22 34.80496 137.30571 37900 ft 389 kts 256°
2026-04-20 19:23 34.78720 137.24354 37892 ft 389 kts 256°
2026-04-20 19:23 34.76937 137.18136 37893 ft 389 kts 256°
2026-04-20 19:24 34.75154 137.11933 37890 ft 389 kts 256°
2026-04-20 19:24 34.73368 137.05728 37888 ft 389 kts 256°
2026-04-20 19:25 34.71348 136.99619 37888 ft 396 kts 247°
2026-04-20 19:25 34.68076 136.94111 37886 ft 405 kts 239°
2026-04-20 19:26 34.63835 136.89455 37889 ft 417 kts 228°
2026-04-20 19:26 34.59200 136.85274 37882 ft 418 kts 227°
2026-04-20 19:27 34.54550 136.81065 37884 ft 417 kts 228°
2026-04-20 19:27 34.49917 136.76818 37897 ft 417 kts 228°
2026-04-20 19:28 34.45286 136.72556 37899 ft 418 kts 228°
2026-04-20 19:28 34.40643 136.68289 37901 ft 419 kts 228°
2026-04-20 19:29 34.35982 136.64013 37886 ft 420 kts 228°
2026-04-20 19:29 34.31321 136.59746 37890 ft 420 kts 228°
2026-04-20 19:30 34.26718 136.55472 37900 ft 419 kts 229°
2026-04-20 19:30 34.22117 136.51133 37898 ft 420 kts 229°
2026-04-20 19:31 34.17505 136.46798 37899 ft 421 kts 229°
2026-04-20 19:31 34.12872 136.42460 37898 ft 422 kts 228°
2026-04-20 19:32 34.08018 136.38359 37898 ft 433 kts 221°
2026-04-20 19:32 34.02633 136.34942 37913 ft 438 kts 219°
2026-04-20 19:33 33.97207 136.31556 37907 ft 439 kts 219°
2026-04-20 19:33 33.91784 136.28157 37907 ft 439 kts 219°
2026-04-20 19:34 33.86369 136.24753 37903 ft 439 kts 219°
2026-04-20 19:34 33.80945 136.21344 37906 ft 440 kts 219°
2026-04-20 19:35 33.75553 136.17958 37908 ft 440 kts 219°
2026-04-20 19:35 33.70117 136.14551 37910 ft 441 kts 218°
2026-04-20 19:36 33.64674 136.11145 37916 ft 441 kts 218°
2026-04-20 19:36 33.59227 136.07740 37915 ft 442 kts 218°
2026-04-20 19:37 33.53762 136.04330 37916 ft 443 kts 218°
2026-04-20 19:37 33.48314 136.00936 37918 ft 443 kts 218°
2026-04-20 19:38 33.42828 135.97523 37919 ft 444 kts 218°
2026-04-20 19:38 33.37338 135.94112 37920 ft 444 kts 218°
2026-04-20 19:39 33.31868 135.90718 37920 ft 445 kts 218°
2026-04-20 19:39 33.26360 135.87305 37917 ft 445 kts 218°
2026-04-20 19:40 33.20876 135.83911 37926 ft 446 kts 218°
2026-04-20 19:40 33.15346 135.80496 37921 ft 447 kts 218°
2026-04-20 19:41 33.09842 135.77100 37918 ft 447 kts 218°
2026-04-20 19:41 33.04292 135.73681 37920 ft 448 kts 218°
2026-04-20 19:42 32.98784 135.70293 37917 ft 448 kts 218°
2026-04-20 19:42 32.93239 135.66888 37925 ft 448 kts 218°
2026-04-20 19:43 32.87696 135.63488 37933 ft 447 kts 218°
2026-04-20 19:43 32.82186 135.60113 37928 ft 447 kts 218°
2026-04-20 19:44 32.76640 135.56720 37930 ft 447 kts 218°
2026-04-20 19:44 32.71098 135.53335 37929 ft 447 kts 218°
2026-04-20 19:45 32.65553 135.49952 37931 ft 448 kts 218°
2026-04-20 19:45 32.60041 135.46594 37931 ft 448 kts 218°
2026-04-20 19:46 32.54483 135.43213 37932 ft 448 kts 218°
2026-04-20 19:46 32.48929 135.39839 37929 ft 449 kts 217°
2026-04-20 19:47 32.43400 135.36485 37931 ft 449 kts 217°
2026-04-20 19:47 32.37827 135.33109 37927 ft 450 kts 217°
2026-04-20 19:48 32.32277 135.29752 37943 ft 450 kts 217°
2026-04-20 19:48 32.26677 135.26369 37933 ft 451 kts 217°
2026-04-20 19:49 32.21078 135.22991 37929 ft 452 kts 217°
2026-04-20 19:49 32.15498 135.19629 37936 ft 452 kts 217°
2026-04-20 19:50 32.10242 135.15781 37934 ft 436 kts 229°
2026-04-20 19:50 32.05956 135.10896 37932 ft 423 kts 239°
2026-04-20 19:51 32.02367 135.05414 37933 ft 422 kts 240°
2026-04-20 19:51 31.98826 134.99914 37938 ft 423 kts 240°
2026-04-20 19:52 31.95243 134.94396 37941 ft 424 kts 240°
2026-04-20 19:52 31.91627 134.88864 37936 ft 425 kts 240°
2026-04-20 19:53 31.88024 134.83374 37936 ft 426 kts 240°
2026-04-20 19:53 31.84384 134.77838 37933 ft 426 kts 240°
2026-04-20 19:54 31.80773 134.72351 37939 ft 426 kts 240°
2026-04-20 19:54 31.77134 134.66830 37933 ft 426 kts 240°
2026-04-20 19:55 31.73523 134.61358 37938 ft 425 kts 239°
2026-04-20 19:55 31.69890 134.55862 37939 ft 425 kts 239°
2026-04-20 19:56 31.66870 134.51297 37936 ft 425 kts 239°
2026-04-20 19:56 31.62642 134.44918 37935 ft 425 kts 239°
2026-04-20 19:57 31.59004 134.39437 37937 ft 425 kts 239°
2026-04-20 19:57 31.55362 134.33957 37939 ft 425 kts 239°
2026-04-20 19:58 31.51748 134.28527 37937 ft 425 kts 239°
2026-04-20 19:58 31.48101 134.23056 37937 ft 425 kts 239°
2026-04-20 19:59 31.44466 134.17610 37932 ft 425 kts 239°
2026-04-20 19:59 31.40811 134.12142 37941 ft 425 kts 238°
2026-04-20 20:00 31.37149 134.06672 37939 ft 425 kts 238°
2026-04-20 20:00 31.33510 134.01242 37935 ft 425 kts 238°
2026-04-20 20:01 31.29873 133.95825 37937 ft 425 kts 238°
2026-04-20 20:01 31.26212 133.90379 37941 ft 425 kts 238°
2026-04-20 20:02 31.23166 133.85852 37941 ft 425 kts 238°
2026-04-20 20:02 31.19523 133.80446 37950 ft 425 kts 237°
2026-04-20 20:03 31.15856 133.75013 37941 ft 425 kts 237°
2026-04-20 20:03 31.12177 133.69569 37940 ft 426 kts 237°
2026-04-20 20:04 31.08517 133.64159 37959 ft 426 kts 237°
2026-04-20 20:04 31.04834 133.58722 37955 ft 427 kts 237°
2026-04-20 20:05 31.01166 133.53315 37954 ft 427 kts 237°
2026-04-20 20:05 30.97460 133.47859 37948 ft 428 kts 237°
2026-04-20 20:06 30.93785 133.42452 37949 ft 428 kts 237°
2026-04-20 20:06 30.90076 133.37001 37951 ft 429 kts 236°
2026-04-20 20:07 30.86382 133.31581 37954 ft 429 kts 236°
2026-04-20 20:07 30.82657 133.26121 37952 ft 430 kts 236°
2026-04-20 20:08 30.78921 133.20654 37954 ft 431 kts 236°
2026-04-20 20:08 30.75203 133.15221 37954 ft 432 kts 236°
2026-04-20 20:09 30.71458 133.09754 37957 ft 432 kts 236°
2026-04-20 20:09 30.67688 133.04262 37961 ft 433 kts 236°
2026-04-20 20:10 30.63951 132.98823 37962 ft 434 kts 236°
2026-04-20 20:10 30.60171 132.93329 37962 ft 435 kts 236°
2026-04-20 20:11 30.56391 132.87844 37966 ft 435 kts 236°
2026-04-20 20:11 30.52619 132.82377 37961 ft 435 kts 236°
2026-04-20 20:12 30.48825 132.76887 37961 ft 436 kts 236°
2026-04-20 20:12 30.45030 132.71401 37963 ft 436 kts 236°
2026-04-20 20:13 30.39354 132.63212 37967 ft 437 kts 236°
2026-04-20 20:13 30.35522 132.57693 37970 ft 437 kts 236°
2026-04-20 20:14 30.31737 132.52249 37973 ft 437 kts 236°
2026-04-20 20:14 30.27922 132.46768 37974 ft 437 kts 236°
2026-04-20 20:15 30.24101 132.41288 37975 ft 438 kts 236°
2026-04-20 20:15 30.20277 132.35810 37975 ft 438 kts 236°
2026-04-20 20:16 30.16449 132.30335 37976 ft 438 kts 236°
2026-04-20 20:16 30.12617 132.24860 37980 ft 438 kts 236°
2026-04-20 20:17 30.08781 132.19388 37978 ft 438 kts 236°
2026-04-20 20:17 30.04943 132.13920 37981 ft 439 kts 236°
2026-04-20 20:18 30.01097 132.08449 37972 ft 439 kts 236°
2026-04-20 20:18 29.97249 132.02981 37971 ft 439 kts 236°
2026-04-20 20:19 29.93395 131.97513 37988 ft 439 kts 236°
2026-04-20 20:19 29.89534 131.92057 37995 ft 439 kts 236°
2026-04-20 20:20 29.85677 131.86597 37985 ft 439 kts 236°
2026-04-20 20:20 29.81819 131.81141 37988 ft 439 kts 235°
2026-04-20 20:21 29.77880 131.75746 37992 ft 440 kts 234°
2026-04-20 20:21 29.73896 131.70403 37995 ft 440 kts 234°
2026-04-20 20:22 29.69939 131.65088 37995 ft 440 kts 234°
2026-04-20 20:22 29.65964 131.59733 37995 ft 440 kts 234°
2026-04-20 20:23 29.61986 131.54373 37996 ft 441 kts 234°
2026-04-20 20:23 29.57998 131.49005 37994 ft 441 kts 234°
2026-04-20 20:24 29.54012 131.43648 37996 ft 441 kts 234°
2026-04-20 20:24 29.52115 131.41101 37996 ft 442 kts 234°
2026-04-20 20:26 29.48468 131.36187 37998 ft 442 kts 234°
2026-04-20 20:27 29.44476 131.30824 37992 ft 442 kts 234°
2026-04-20 20:27 29.40470 131.25465 37998 ft 442 kts 234°
2026-04-20 20:28 29.36459 131.20108 37998 ft 443 kts 234°
2026-04-20 20:28 29.32440 131.14747 37998 ft 443 kts 234°
2026-04-20 20:29 29.28419 131.09390 37999 ft 443 kts 234°
2026-04-20 20:29 29.24418 131.04065 37999 ft 444 kts 234°
2026-04-20 20:30 29.20389 130.98710 37998 ft 444 kts 234°
2026-04-20 20:30 29.16360 130.93361 37999 ft 444 kts 234°
2026-04-20 20:31 29.12328 130.88016 37994 ft 444 kts 233°
2026-04-20 20:31 29.08293 130.82674 37998 ft 444 kts 233°
2026-04-20 20:32 29.04254 130.77334 37997 ft 444 kts 233°
2026-04-20 20:32 29.00209 130.71993 38002 ft 444 kts 233°
2026-04-20 20:33 28.96164 130.66658 37999 ft 445 kts 233°
2026-04-20 20:33 28.92111 130.61320 38006 ft 445 kts 233°
2026-04-20 20:34 28.88053 130.55982 38006 ft 445 kts 233°
2026-04-20 20:34 28.84020 130.50685 38002 ft 445 kts 233°
2026-04-20 20:35 28.79953 130.45349 38006 ft 446 kts 233°
2026-04-20 20:35 28.75883 130.40017 38005 ft 446 kts 233°
2026-04-20 20:36 28.71806 130.34681 38005 ft 446 kts 233°
2026-04-20 20:36 28.67726 130.29350 38007 ft 447 kts 233°
2026-04-20 20:37 28.63642 130.24020 38008 ft 447 kts 233°
2026-04-20 20:37 28.59553 130.18691 38009 ft 447 kts 233°
2026-04-20 20:38 28.55459 130.13361 38009 ft 447 kts 233°
2026-04-20 20:38 28.51365 130.08038 38009 ft 447 kts 233°
2026-04-20 20:39 28.47269 130.02719 37996 ft 447 kts 233°
2026-04-20 20:39 28.43197 129.97439 37991 ft 447 kts 233°
2026-04-20 20:40 28.39099 129.92131 37994 ft 447 kts 232°
2026-04-20 20:40 28.34993 129.86821 37986 ft 447 kts 232°
2026-04-20 20:41 28.30888 129.81518 38004 ft 447 kts 232°
2026-04-20 20:41 28.26776 129.76211 38007 ft 448 kts 232°
2026-04-20 20:42 28.22660 129.70908 38010 ft 447 kts 232°
2026-04-20 20:42 28.18548 129.65616 38005 ft 448 kts 232°
2026-04-20 20:43 28.14429 129.60322 38005 ft 448 kts 232°
2026-04-20 20:43 28.10307 129.55030 38020 ft 448 kts 232°
2026-04-20 20:44 28.06210 129.49778 38026 ft 448 kts 232°
2026-04-20 20:44 28.02086 129.44496 38021 ft 448 kts 232°
2026-04-20 20:45 27.97952 129.39209 38024 ft 448 kts 232°
2026-04-20 20:45 27.93820 129.33931 38022 ft 448 kts 232°
2026-04-20 20:46 27.89681 129.28650 38026 ft 449 kts 232°
2026-04-20 20:46 27.85542 129.23376 38031 ft 449 kts 232°
2026-04-20 20:47 27.81399 129.18103 38029 ft 449 kts 232°
2026-04-20 20:47 27.77946 129.13711 38031 ft 449 kts 232°
2026-04-20 20:48 27.73117 129.07583 38031 ft 449 kts 232°
2026-04-20 20:48 27.68964 129.02317 38030 ft 449 kts 232°
2026-04-20 20:49 27.65479 128.97902 38030 ft 449 kts 232°
2026-04-20 20:49 27.61322 128.92641 38025 ft 449 kts 231°
2026-04-20 20:50 27.57190 128.87417 38028 ft 449 kts 231°
2026-04-20 20:50 27.53025 128.82158 38023 ft 449 kts 231°
2026-04-20 20:51 27.48861 128.76905 38020 ft 449 kts 231°
2026-04-20 20:51 27.44710 128.71649 38021 ft 449 kts 233°
2026-04-20 20:52 27.41142 128.65939 38019 ft 445 kts 242°
2026-04-20 20:52 27.38023 128.59927 38020 ft 445 kts 242°
2026-04-20 20:53 27.34893 128.53920 38027 ft 445 kts 242°
2026-04-20 20:53 27.33319 128.50919 37646 ft 446 kts 242°
2026-04-20 20:53 27.31740 128.47916 37031 ft 446 kts 241°
2026-04-20 20:54 27.30158 128.44916 36314 ft 445 kts 241°
2026-04-20 20:54 27.28577 128.41919 35531 ft 446 kts 241°
2026-04-20 20:54 27.26986 128.38906 34657 ft 450 kts 241°
2026-04-20 20:54 27.25379 128.35864 33715 ft 454 kts 241°
2026-04-20 20:55 27.23762 128.32805 32700 ft 457 kts 241°
2026-04-20 20:55 27.22133 128.29726 31698 ft 459 kts 242°
2026-04-20 20:55 27.20498 128.26638 30740 ft 460 kts 242°
2026-04-20 20:55 27.18870 128.23567 30017 ft 455 kts 242°
2026-04-20 20:56 27.17260 128.20529 29188 ft 450 kts 242°
2026-04-20 20:56 27.15669 128.17528 28454 ft 444 kts 242°
2026-04-20 20:56 27.14098 128.14566 27761 ft 439 kts 242°
2026-04-20 20:56 27.12565 128.11679 27111 ft 433 kts 241°
2026-04-20 20:57 27.11008 128.08756 26435 ft 429 kts 241°
2026-04-20 20:57 27.09496 128.05936 25786 ft 425 kts 240°
2026-04-20 20:57 27.07974 128.03101 25141 ft 421 kts 240°
2026-04-20 20:57 27.06471 128.00301 24504 ft 418 kts 240°
2026-04-20 20:58 27.04973 127.97511 23871 ft 415 kts 240°
2026-04-20 20:58 27.03404 127.94829 23144 ft 409 kts 231°
2026-04-20 20:58 27.01262 127.92735 22494 ft 410 kts 215°
2026-04-20 20:58 26.98709 127.91312 21878 ft 410 kts 204°
2026-04-20 20:59 26.95962 127.90441 21282 ft 412 kts 192°
2026-04-20 20:59 26.93118 127.90364 20713 ft 408 kts 182°
2026-04-20 20:59 26.90290 127.90492 20133 ft 405 kts 181°
2026-04-20 20:59 26.87483 127.90624 19544 ft 404 kts 181°
2026-04-20 21:00 26.84671 127.90744 18966 ft 402 kts 181°
2026-04-20 21:00 26.81880 127.90849 18393 ft 401 kts 181°
2026-04-20 21:00 26.79091 127.90944 17723 ft 400 kts 181°
2026-04-20 21:00 26.76321 127.91031 17127 ft 397 kts 181°
2026-04-20 21:01 26.73562 127.91114 16542 ft 395 kts 181°
2026-04-20 21:01 26.70829 127.91194 15972 ft 392 kts 181°
2026-04-20 21:01 26.68141 127.91272 15411 ft 390 kts 181°
2026-04-20 21:01 26.65438 127.91350 14846 ft 388 kts 181°
2026-04-20 21:02 26.62738 127.91428 14269 ft 387 kts 180°
2026-04-20 21:02 26.60052 127.91506 13672 ft 386 kts 180°
2026-04-20 21:02 26.57370 127.91583 13057 ft 384 kts 180°
2026-04-20 21:02 26.54706 127.91661 12476 ft 382 kts 180°
2026-04-20 21:03 26.52060 127.91738 11921 ft 379 kts 180°
2026-04-20 21:03 26.49447 127.91815 11673 ft 368 kts 180°
2026-04-20 21:03 26.46926 127.91889 11494 ft 356 kts 180°
2026-04-20 21:03 26.44484 127.91960 11333 ft 345 kts 180°
2026-04-20 21:04 26.42119 127.92029 11180 ft 334 kts 180°
2026-04-20 21:04 26.39843 127.92052 11024 ft 319 kts 186°
2026-04-20 21:04 26.37740 127.91440 10731 ft 308 kts 205°
2026-04-20 21:04 26.35809 127.90437 10408 ft 306 kts 206°
2026-04-20 21:05 26.33887 127.89425 10089 ft 304 kts 206°
2026-04-20 21:05 26.31997 127.88435 9946 ft 296 kts 206°
2026-04-20 21:05 26.30161 127.87481 9796 ft 287 kts 206°
2026-04-20 21:05 26.28366 127.86553 9595 ft 282 kts 206°
2026-04-20 21:06 26.26596 127.85642 9299 ft 279 kts 206°
2026-04-20 21:06 26.24834 127.84739 8942 ft 280 kts 206°
2026-04-20 21:06 26.23063 127.83832 8584 ft 280 kts 206°
2026-04-20 21:06 26.21292 127.82927 8249 ft 280 kts 206°
2026-04-20 21:07 26.19521 127.82022 7919 ft 280 kts 206°
2026-04-20 21:07 26.17755 127.81122 7627 ft 279 kts 206°
2026-04-20 21:07 26.15991 127.80222 7330 ft 278 kts 206°
2026-04-20 21:07 26.14230 127.79325 7030 ft 278 kts 206°
2026-04-20 21:08 26.12486 127.78436 6744 ft 275 kts 206°
2026-04-20 21:08 26.10740 127.77548 6387 ft 276 kts 206°
2026-04-20 21:08 26.08995 127.76660 6065 ft 275 kts 206°
2026-04-20 21:08 26.07280 127.75784 5723 ft 273 kts 208°
2026-04-20 21:09 26.05695 127.74674 5233 ft 268 kts 212°
2026-04-20 21:09 26.03972 127.73982 5064 ft 260 kts 193°
2026-04-20 21:09 26.02243 127.73567 4975 ft 248 kts 197°
2026-04-20 21:09 26.00630 127.72988 4804 ft 241 kts 201°
2026-04-20 21:10 25.99074 127.72343 4522 ft 235 kts 210°
2026-04-20 21:10 25.97733 127.71355 4261 ft 228 kts 221°
2026-04-20 21:10 25.96749 127.70060 3936 ft 217 kts 252°
2026-04-20 21:10 25.96580 127.68448 3558 ft 211 kts 286°
2026-04-20 21:11 25.97271 127.67074 3245 ft 203 kts 321°
2026-04-20 21:11 25.98485 127.66449 3113 ft 187 kts 349°
2026-04-20 21:11 25.99734 127.66228 2977 ft 177 kts 353°
2026-04-20 21:11 26.00929 127.66192 2950 ft 177 kts 17°
2026-04-20 21:12 26.02046 127.66714 2991 ft 173 kts 11°
2026-04-20 21:12 26.03230 127.66643 2960 ft 172 kts 350°
2026-04-20 21:12 26.04425 127.66410 2711 ft 173 kts 351°
2026-04-20 21:12 26.05592 127.66193 2479 ft 168 kts 351°
2026-04-20 21:13 26.06737 127.65979 2273 ft 166 kts 351°
2026-04-20 21:13 26.07872 127.65765 2108 ft 166 kts 352°
2026-04-20 21:13 26.08999 127.65552 2072 ft 168 kts 351°
2026-04-20 21:13 26.10159 127.65333 2032 ft 170 kts 351°
2026-04-20 21:14 26.11325 127.65124 2005 ft 168 kts 353°
2026-04-20 21:14 26.12483 127.65021 1992 ft 166 kts 357°
2026-04-20 21:14 26.13620 127.64957 1668 ft 162 kts 357°
2026-04-20 21:14 26.14730 127.64892 1165 ft 154 kts 357°
2026-04-20 21:15 26.15783 127.64830 716 ft 145 kts 357°
2026-04-20 21:15 26.16753 127.64770 328 ft 132 kts 356°
2026-04-20 21:15 26.17629 127.64684 155 ft 128 kts 354°
2026-04-20 21:15 26.18538 127.64627 82 ft 133 kts 359°
2026-04-20 21:16 26.19437 127.64589 33 ft 121 kts 358°
2026-04-20 21:16 26.20177 127.64559 32 ft 89 kts 358°
2026-04-20 21:16 26.20673 127.64536 34 ft 55 kts 358°
2026-04-20 21:16 26.20902 127.64531 33 ft 24 kts 11°
2026-04-20 21:17 26.20971 127.64606 33 ft 13 kts 76°
2026-04-20 21:17 26.20972 127.64612 33 ft 0 kts 78°
2026-04-20 21:18 26.20972 127.64613 33 ft 1 kts 78°
2026-04-20 21:18 26.20978 127.64673 33 ft 13 kts 83°
2026-04-20 21:19 26.21004 127.64747 33 ft 3 kts 81°
2026-04-20 21:19 26.21007 127.64809 33 ft 19 kts 87°
2026-04-20 21:19 26.21013 127.64951 33 ft 5 kts 90°
2026-04-20 21:20 26.21013 127.64963 33 ft 0 kts 90°